Location: ???????
(60.4260°N, 46.9069°E)
Time: 18:42:55
(UTC+00:00)

Cosmos 2227 Rocket - Pass Details

Date: 30 March 2020
Orbit: 837 x 847 km, 71.0° (Epoch: 05 June)

Event Time Altitude Azimuth Distance (km) Brightness Sun altitude
Rises 01:32:09 0° 191° (S) 3,381 5.0 -6.8°
Reaches altitude 10° 01:34:40 10° 185° (S) 2,451 4.4 -6.5°
Maximum altitude 01:39:57 44° 115° (ESE) 1,157 3.4 -5.9°
Drops below altitude 10° 01:45:17 10° 46° (NE) 2,470 5.8 -5.3°
Sets 01:47:49 0° 40° (NE) 3,410 6.4 -5.0°
